Project,Study,Ord_Occ,Event_Num,Cast_ID,Date_Time_UTC,Date_Time_PST,Lat_Dec,Lon_Dec,Sta_ID,Line,Sta,Depth,Pressure,PrQ,Temp1,Temp1Q,Temp2,Temp2Q,TempAve,Salt1,Salt1Q,Salt1_Corr,Salt2,Salt2Q,Salt2_Corr,SaltAve_Corr,Ox1,Ox1Q,Ox1_CruiseCorr,Ox1_StaCorr,Ox2,Ox2Q,Ox2_CruiseCorr,Ox2_StaCorr,OxAve_StaCorr,Ox1uM,Ox1uM_CruiseCorr,Ox1uM_StaCorr,Ox2uM,Ox2uM_CruiseCorr,Ox2uM_StaCorr,OxAveuM_StaCorr,FluorV,FluorQ,EstChl_CruiseCorr,EstChl_StaCorr,ISUSV,ISUSQ,EstNO3_CruiseCorr,EstNO3_StaCorr,SigThetaTS1,SigThetaTS1Q,SigThetaTS2,SigThetaTS2Q,BAT,XMiss,TransQ,pH,pHQ,SPAR,SPARQ,PAR,PARQ,PoT1,PoT2,DynHt,SVA,OxSat1,OxSat2,BTL_Depth,BTL_Temp,SaltB,OxB,OxBuM,Chl-a,Phaeo,NO3,NO2,NH4,PO4,SIL
CalCOFI,2101RL,028,,2101_028d,22-Jan-2021 16:41:54,22-Jan-2021 08:41:54,33.25194,-118.24963,090.0 035.0,090.0,035.0,2.000,2.014,,15.0995,,15.0991,,15.0993,33.5078,,33.5136,33.5047,,33.5067,33.5102,5.6185,,5.8802,5.8572,5.5156,,5.8561,5.8168,5.8370,244.851,256.5702,206.1703,240.365,272.7306,203.5869,204.8786,,,,, ,, , ,24.8001,,24.7978,,0.8220,81.4242,,,,4.7903E+02,,6.9357E+00,,15.0992,15.0989,-0.0029,313.866,97.993,96.195,2,,33.4993,5.894,257.00,-99.000,-99.000,,,,,
CalCOFI,2101RL,028,,2101_028d,22-Jan-2021 16:42:36,22-Jan-2021 08:42:36,33.25160,-118.24973,090.0 035.0,090.0,035.0,3.000,3.021,,15.0863,,15.0853,,15.0858,33.5082,,33.5140,33.5044,,33.5064,33.5102,5.6242,,5.8862,5.8631,5.5102,,5.8504,5.8111,5.8371,245.098,256.8288,206.3516,240.129,273.0052,203.4132,204.8824,,,,, ,, , ,24.8033,,24.8006,,0.8184,81.4974,,,,7.7685E+02,,5.4264E+00,,15.0858,15.0848,0.0078,313.586,98.066,96.074,,,,,,,,,,,,
CalCOFI,2101RL,028,,2101_028d,22-Jan-2021 16:42:38,22-Jan-2021 08:42:38,33.25164,-118.24974,090.0 035.0,090.0,035.0,4.000,4.029,,15.0772,,15.0795,,15.0784,33.5075,,33.5133,33.5042,,33.5062,33.5098,5.6247,,5.8867,5.8636,5.5486,,5.8912,5.8515,5.8576,245.121,256.8529,206.3685,241.806,273.0308,204.6474,205.5080,,,,, ,, , ,24.8048,,24.8017,,0.8200,81.4654,,,,9.6934E+02,,4.7472E+00,,15.0766,15.0789,0.0113,313.478,98.058,96.733,,,,,,,,,,,,
CalCOFI,2101RL,028,,2101_028d,22-Jan-2021 16:42:41,22-Jan-2021 08:42:41,33.25164,-118.24974,090.0 035.0,090.0,035.0,5.000,5.036,,15.0700,,15.0717,,15.0709,33.5068,,33.5126,33.5034,,33.5054,33.5090,5.6206,,5.8824,5.8594,5.5663,,5.9100,5.8701,5.8648,244.942,256.6655,206.2371,242.574,272.8317,205.2126,205.7249,,,,, ,, , ,24.8058,,24.8028,,0.8184,81.4983,,,,9.7838E+02,,4.0933E+00,,15.0693,15.0709,0.0145,313.410,97.972,97.025,,,,,,,,,,,,
CalCOFI,2101RL,028,,2101_028d,22-Jan-2021 16:42:42,22-Jan-2021 08:42:42,33.25164,-118.24974,090.0 035.0,090.0,035.0,6.000,6.043,,15.0587,,15.0502,,15.0545,33.5066,,33.5124,33.5028,,33.5048,33.5086,5.6319,,5.8942,5.8711,5.5741,,5.9183,5.8783,5.8747,245.433,257.1795,206.5975,242.912,273.3777,205.4613,206.0294,,,,, ,, , ,24.8082,,24.8071,,0.8176,81.5135,,,,9.3437E+02,,3.5512E+00,,15.0578,15.0493,0.0177,313.213,98.146,97.119,,,,,,,,,,,,
CalCOFI,2101RL,028,,2101_028d,22-Jan-2021 16:42:44,22-Jan-2021 08:42:44,33.25164,-118.24974,090.0 035.0,090.0,035.0,7.000,7.050,,15.0600,,15.0624,,15.0612,33.5069,,33.5127,33.5034,,33.5054,33.5091,5.6323,,5.8947,5.8715,5.5780,,5.9224,5.8824,5.8770,245.451,257.1983,206.6107,243.083,273.3978,205.5872,206.0990,,,,, ,, , ,24.8082,,24.8050,,0.8163,81.5394,,,,8.8512E+02,,3.0824E+00,,15.0589,15.0613,0.0208,313.244,98.156,97.211,,,,,,,,,,,,
CalCOFI,2101RL,028,,2101_028d,22-Jan-2021 16:42:46,22-Jan-2021 08:42:46,33.25162,-118.24974,090.0 035.0,090.0,035.0,8.000,8.057,,15.0878,,15.0637,,15.0758,33.5084,,33.5142,33.5015,,33.5035,33.5089,5.6068,,5.8680,5.8451,5.5635,,5.9070,5.8672,5.8562,244.340,256.0353,205.7952,242.451,272.1623,205.1221,205.4587,,,,, ,, , ,24.8033,,24.8032,,0.8167,81.5311,,,,9.1479E+02,,2.7929E+00,,15.0866,15.0625,0.0240,313.743,97.766,96.959,,,,,,,,,,,,
CalCOFI,2101RL,028,,2101_028d,22-Jan-2021 16:42:48,22-Jan-2021 08:42:48,33.25161,-118.24974,090.0 035.0,090.0,035.0,9.000,9.064,,15.0531,,15.0156,,15.0344,33.5064,,33.5122,33.5024,,33.5044,33.5083,5.6124,,5.8738,5.8509,5.5575,,5.9006,5.8609,5.8559,244.581,256.2876,205.9721,242.190,272.4303,204.9300,205.4511,,,,, ,, , ,24.8093,,24.8144,,0.8188,81.4880,,,,8.9757E+02,,2.5153E+00,,15.0518,15.0142,0.0271,313.196,97.795,96.764,,,,,,,,,,,,
CalCOFI,2101RL,028,,2101_028d,22-Jan-2021 16:42:49,22-Jan-2021 08:42:49,33.25160,-118.24974,090.0 035.0,090.0,035.0,10.000,10.071,,14.9935,,14.9927,,14.9931,33.5053,,33.5111,33.5017,,33.5037,33.5074,5.6107,,5.8721,5.8492,5.5604,,5.9037,5.8639,5.8566,244.505,256.2080,205.9163,242.313,272.3458,205.0205,205.4684,,,,, ,, , ,24.8215,,24.8189,,0.8190,81.4841,,,,8.5573E+02,,2.2780E+00,,14.9920,14.9912,0.0303,312.070,97.649,96.769,,,,,,,,,,,,
CalCOFI,2101RL,028,,2101_028d,22-Jan-2021 16:42:50,22-Jan-2021 08:42:50,33.25160,-118.24974,090.0 035.0,090.0,035.0,11.000,11.079,,15.0228,,15.0088,,15.0158,33.5059,,33.5117,33.5012,,33.5032,33.5075,5.6154,,5.8770,5.8540,5.5667,,5.9104,5.8705,5.8623,244.712,256.4247,206.0683,242.587,272.5760,205.2222,205.6453,,,,, ,, , ,24.8156,,24.8150,,0.8183,81.4986,,,,8.0205E+02,,2.0319E+00,,15.0211,15.0072,0.0334,312.664,97.788,96.909,11,,33.4962,5.891,256.87,0.310,0.083,,,,,
CalCOFI,2101RL,028,,2101_028d,22-Jan-2021 16:42:51,22-Jan-2021 08:42:51,33.25160,-118.24974,090.0 035.0,090.0,035.0,12.000,12.086,,14.9585,,14.9229,,14.9407,33.5039,,33.5097,33.5011,,33.5031,33.5064,5.6201,,5.8819,5.8589,5.5797,,5.9242,5.8842,5.8716,244.912,256.6341,206.2151,243.151,272.7984,205.6372,205.9262,,,,, ,, , ,24.8281,,24.8336,,0.8193,81.4789,,,,7.5598E+02,,1.7988E+00,,14.9568,14.9211,0.0366,311.505,97.743,96.970,,,,,,,,,,,,
CalCOFI,2101RL,028,,2101_028d,22-Jan-2021 16:42:52,22-Jan-2021 08:42:52,33.25160,-118.24974,090.0 035.0,090.0,035.0,13.000,13.093,,14.8967,,14.8990,,14.8979,33.5037,,33.5095,33.5000,,33.5020,33.5058,5.6195,,5.8813,5.8583,5.5766,,5.9209,5.8809,5.8696,244.884,256.6048,206.1945,243.015,272.7672,205.5371,205.8658,,,,, ,, , ,24.8413,,24.8380,,0.8267,81.3281,,,,7.4317E+02,,1.6406E+00,,14.8947,14.8971,0.0397,310.269,97.612,96.869,,,,,,,,,,,,
CalCOFI,2101RL,028,,2101_028d,22-Jan-2021 16:42:54,22-Jan-2021 08:42:54,33.25160,-118.24974,090.0 035.0,090.0,035.0,14.000,14.100,,14.9009,,14.9042,,14.9026,33.5037,,33.5095,33.5001,,33.5021,33.5058,5.6233,,5.8852,5.8622,5.5619,,5.9053,5.8655,5.8639,245.051,256.7796,206.3171,242.374,272.9530,205.0654,205.6913,,,,, ,, , ,24.8404,,24.8369,,0.8260,81.3417,,,,7.3841E+02,,1.4771E+00,,14.8988,14.9021,0.0428,310.386,97.686,96.623,,,,,,,,,,,,
CalCOFI,2101RL,028,,2101_028d,22-Jan-2021 16:42:56,22-Jan-2021 08:42:56,33.25160,-118.24976,090.0 035.0,090.0,035.0,15.000,15.107,,14.8581,,14.8503,,14.8542,33.5039,,33.5097,33.5013,,33.5033,33.5065,5.6153,,5.8769,5.8539,5.5658,,5.9094,5.8696,5.8618,244.700,256.4122,206.0595,242.540,272.5626,205.1876,205.6236,,,,, ,, , ,24.8498,,24.8495,,0.8467,80.9225,,,,7.7130E+02,,1.3237E+00,,14.8559,14.8480,0.0460,309.521,97.464,96.587,,,,,,,,,,,,
CalCOFI,2101RL,028,,2101_028d,22-Jan-2021 16:42:57,22-Jan-2021 08:42:57,33.25160,-118.24976,090.0 035.0,090.0,035.0,16.000,16.115,,14.8237,,14.8213,,14.8225,33.5037,,33.5095,33.5005,,33.5025,33.5060,5.6295,,5.8917,5.8686,5.5700,,5.9139,5.8740,5.8713,245.318,257.0591,206.5131,242.723,273.2499,205.3222,205.9177,,,,, ,, , ,24.8572,,24.8552,,0.8374,81.1116,,,,8.2958E+02,,1.1847E+00,,14.8214,14.8189,0.0491,308.852,97.644,96.604,,,,,,,,,,,,
CalCOFI,2101RL,028,,2101_028d,22-Jan-2021 16:42:59,22-Jan-2021 08:42:59,33.25160,-118.24976,090.0 035.0,090.0,035.0,17.000,17.122,,14.8235,,14.7998,,14.8117,33.5039,,33.5097,33.5003,,33.5023,33.5060,5.6227,,5.8846,5.8616,5.5712,,5.9152,5.8753,5.8685,245.020,256.7471,206.2943,242.776,272.9185,205.3612,205.8278,,,,, ,, , ,24.8574,,24.8597,,0.8401,81.0566,,,,8.8110E+02,,1.0535E+00,,14.8209,14.7973,0.0522,308.864,97.525,96.584,,,,,,,,,,,,
CalCOFI,2101RL,028,,2101_028d,22-Jan-2021 16:43:06,22-Jan-2021 08:43:06,33.25158,-118.24977,090.0 035.0,090.0,035.0,18.000,18.129,,14.7731,,14.7715,,14.7723,33.5016,,33.5074,33.4981,,33.5001,33.5038,5.6288,,5.8910,5.8679,5.5731,,5.9172,5.8773,5.8726,245.281,257.0204,206.4859,242.858,273.2087,205.4216,205.9538,,,,, ,, , ,24.8665,,24.8641,,0.8425,81.0083,,,,8.4179E+02,,9.0557E-01,,14.7704,14.7688,0.0553,308.026,97.530,96.561,,,,,,,,,,,,
CalCOFI,2101RL,028,,2101_028d,22-Jan-2021 16:43:13,22-Jan-2021 08:43:13,33.25157,-118.24978,090.0 035.0,090.0,035.0,19.000,19.136,,14.7638,,14.7642,,14.7640,33.5011,,33.5069,33.4978,,33.4998,33.5034,5.6353,,5.8978,5.8746,5.5737,,5.9178,5.8779,5.8763,245.566,257.3187,206.6951,242.881,273.5256,205.4385,206.0668,,,,, ,, , ,24.8681,,24.8655,,0.8406,81.0459,,,,7.9297E+02,,7.7926E-01,,14.7610,14.7613,0.0584,307.899,97.625,96.556,,,,,,,,,,,,
CalCOFI,2101RL,028,,2101_028d,22-Jan-2021 16:43:18,22-Jan-2021 08:43:18,33.25156,-118.24978,090.0 035.0,090.0,035.0,20.000,20.143,,14.7613,,14.7618,,14.7616,33.5010,,33.5068,33.4975,,33.4995,33.5032,5.6287,,5.8909,5.8678,5.5816,,5.9262,5.8862,5.8770,245.279,257.0183,206.4845,243.228,273.2065,205.6939,206.0892,,,,, ,, , ,24.8686,,24.8658,,0.8420,81.0189,,,,8.0715E+02,,6.8558E-01,,14.7583,14.7588,0.0615,307.880,97.506,96.689,,,,,,,,,,,,
CalCOFI,2101RL,028,,2101_028d,22-Jan-2021 16:43:21,22-Jan-2021 08:43:21,33.25157,-118.24979,090.0 035.0,090.0,035.0,21.000,21.151,,14.7587,,14.7592,,14.7590,33.5006,,33.5064,33.4971,,33.4991,33.5028,5.6359,,5.8984,5.8752,5.5762,,5.9205,5.8805,5.8779,245.594,257.3480,206.7157,242.992,273.5568,205.5202,206.1180,,,,, ,, , ,24.8689,,24.8661,,0.8414,81.0292,,,,8.5509E+02,,5.8735E-01,,14.7556,14.7561,0.0646,307.882,97.626,96.590,21,,33.4827,5.830,254.18,0.350,0.077,,,,,
CalCOFI,2101RL,028,,2101_028d,22-Jan-2021 16:43:25,22-Jan-2021 08:43:25,33.25156,-118.24980,090.0 035.0,090.0,035.0,22.000,22.158,,14.7579,,14.7587,,14.7583,33.5002,,33.5060,33.4968,,33.4988,33.5024,5.6337,,5.8961,5.8729,5.5677,,5.9115,5.8716,5.8723,245.495,257.2444,206.6430,242.620,273.4467,205.2464,205.9447,,,,, ,, , ,24.8688,,24.8660,,0.8419,81.0202,,,,9.2798E+02,,5.3397E-01,,14.7547,14.7555,0.0677,307.925,97.585,96.441,,,,,,,,,,,,
CalCOFI,2101RL,028,,2101_028d,22-Jan-2021 16:43:27,22-Jan-2021 08:43:27,33.25157,-118.24980,090.0 035.0,090.0,035.0,23.000,23.165,,14.7472,,14.7461,,14.7467,33.4993,,33.5051,33.4957,,33.4977,33.5014,5.6339,,5.8963,5.8731,5.5881,,5.9331,5.8930,5.8831,245.503,257.2527,206.6489,243.508,273.4556,205.9000,206.2745,,,,, ,, , ,24.8704,,24.8679,,0.8417,81.0241,,,,9.5255E+02,,4.4828E-01,,14.7438,14.7427,0.0708,307.799,97.567,96.769,,,,,,,,,,,,
CalCOFI,2101RL,028,,2101_028d,22-Jan-2021 16:43:30,22-Jan-2021 08:43:30,33.25158,-118.24980,090.0 035.0,090.0,035.0,24.000,24.172,,14.7260,,14.7249,,14.7255,33.4977,,33.5035,33.4942,,33.4962,33.4999,5.6066,,5.8678,5.8449,5.5543,,5.8972,5.8575,5.8512,244.312,256.0060,205.7747,242.036,272.1312,204.8166,205.2957,,,,, ,, , ,24.8738,,24.8713,,0.8412,81.0331,,,,9.6674E+02,,3.8354E-01,,14.7224,14.7213,0.0739,307.511,97.052,96.143,,,,,,,,,,,,
CalCOFI,2101RL,028,,2101_028d,22-Jan-2021 16:43:32,22-Jan-2021 08:43:32,33.25156,-118.24982,090.0 035.0,090.0,035.0,25.000,25.180,,14.6653,,14.6620,,14.6637,33.4939,,33.4997,33.4906,,33.4926,33.4962,5.6059,,5.8670,5.8442,5.5447,,5.8870,5.8474,5.8458,244.281,255.9736,205.7519,241.613,272.0967,204.5053,205.1286,,,,, ,, , ,24.8838,,24.8820,,0.8465,80.9272,,,,9.5198E+02,,3.2401E-01,,14.6616,14.6583,0.0770,306.577,96.920,95.853,,,,,,,,,,,,
CalCOFI,2101RL,028,,2101_028d,22-Jan-2021 16:43:34,22-Jan-2021 08:43:34,33.25155,-118.24982,090.0 035.0,090.0,035.0,26.000,26.187,,14.5812,,14.5782,,14.5797,33.4901,,33.4959,33.4867,,33.4887,33.4923,5.5272,,5.7847,5.7630,5.4930,,5.8321,5.7930,5.7780,240.849,252.3809,203.2328,239.359,268.2803,202.8465,203.0397,,,,, ,, , ,24.8989,,24.8969,,0.8536,80.7828,,,,1.0276E+03,,2.6967E-01,,14.5774,14.5744,0.0801,305.167,95.396,94.798,,,,,,,,,,,,
CalCOFI,2101RL,028,,2101_028d,22-Jan-2021 16:43:37,22-Jan-2021 08:43:37,33.25154,-118.24981,090.0 035.0,090.0,035.0,27.000,27.194,,14.4172,,14.4083,,14.4128,33.4796,,33.4854,33.4767,,33.4787,33.4821,5.3335,,5.5819,5.5631,5.3466,,5.6766,5.6390,5.6011,232.399,243.5355,197.0304,232.971,258.8837,198.1452,197.5878,,,,, ,, , ,24.9257,,24.9253,,0.8694,80.4655,,,,1.0381E+03,,2.3476E-01,,14.4133,14.4044,0.0831,302.645,91.744,91.952,27,,33.4532,, ,,,,,,,
CalCOFI,2101RL,028,,2101_028d,22-Jan-2021 16:43:39,22-Jan-2021 08:43:39,33.25154,-118.24980,090.0 035.0,090.0,035.0,28.000,28.201,,14.1970,,14.1884,,14.1927,33.4769,,33.4827,33.4737,,33.4757,33.4792,5.1880,,5.4297,5.4129,5.1861,,5.5062,5.4702,5.4416,226.053,236.8925,192.3723,225.970,251.8269,192.9928,192.6826,,,,, ,, , ,24.9699,,24.9693,,0.8931,79.9901,,,,1.0078E+03,,1.9295E-01,,14.1930,14.1844,0.0862,298.451,88.845,88.795,,,,,,,,,,,,
CalCOFI,2101RL,028,,2101_028d,22-Jan-2021 16:43:41,22-Jan-2021 08:43:41,33.25154,-118.24980,090.0 035.0,090.0,035.0,29.000,29.209,,14.0794,,14.0773,,14.0784,33.4745,,33.4803,33.4712,,33.4732,33.4768,5.1204,,5.3589,5.3431,5.0995,,5.4142,5.3791,5.3611,223.099,233.8002,190.2041,222.191,248.5420,190.2116,190.2079,,,,, ,, , ,24.9927,,24.9906,,0.8989,79.8739,,,,1.0169E+03,,1.3516E-01,,14.0753,14.0732,0.0892,296.304,87.476,87.114,,,,,,,,,,,,
CalCOFI,2101RL,028,,2101_028d,22-Jan-2021 16:43:42,22-Jan-2021 08:43:42,33.25154,-118.24980,090.0 035.0,090.0,035.0,30.000,30.216,,13.9482,,13.9448,,13.9465,33.4678,,33.4736,33.4646,,33.4666,33.4701,5.0842,,5.3210,5.3058,5.0675,,5.3802,5.3454,5.3256,221.520,232.1473,189.0451,220.793,246.7861,189.1827,189.1139,,,,, ,, , ,25.0148,,25.0130,,0.8857,80.1371,,,,1.0815E+03,,7.9308E-02,,13.9440,13.9405,0.0921,294.229,86.624,86.332,,,,,,,,,,,,
CalCOFI,2101RL,028,,2101_028d,22-Jan-2021 16:43:44,22-Jan-2021 08:43:44,33.25154,-118.24980,090.0 035.0,090.0,035.0,31.000,31.223,,13.8062,,13.7876,,13.7969,33.4549,,33.4607,33.4503,,33.4523,33.4565,5.0766,,5.3131,5.2979,5.0542,,5.3661,5.3314,5.3147,221.183,231.7946,188.7977,220.208,246.4114,188.7522,188.7750,,,,, ,, , ,25.0341,,25.0344,,0.8663,80.5270,,,,1.0901E+03,,3.2436E-02,,13.8019,13.7832,0.0951,292.403,86.237,85.822,,,,,,,,,,,,
CalCOFI,2101RL,028,,2101_028d,22-Jan-2021 16:43:47,22-Jan-2021 08:43:47,33.25154,-118.24980,090.0 035.0,090.0,035.0,32.000,32.230,,13.6715,,13.6681,,13.6698,33.4412,,33.4470,33.4374,,33.4394,33.4432,5.0688,,5.3049,5.2899,5.0347,,5.3454,5.3109,5.3004,220.840,231.4355,188.5459,219.353,246.0299,188.1229,188.3344,,,,, ,, , ,25.0512,,25.0490,,0.8462,80.9323,,,,1.0620E+03,,9.7712E-04,,13.6671,13.6636,0.0980,290.803,85.862,85.276,,,,,,,,,,,,
CalCOFI,2101RL,028,,2101_028d,22-Jan-2021 16:43:49,22-Jan-2021 08:43:49,33.25154,-118.24980,090.0 035.0,090.0,035.0,33.000,33.238,,13.6276,,13.6287,,13.6282,33.4365,,33.4423,33.4332,,33.4352,33.4388,4.9747,,5.2064,5.1927,4.9494,,5.2548,5.2212,5.2070,216.741,227.1447,185.5372,215.636,241.4718,185.3874,185.4623,,,,, ,, , ,25.0565,,25.0538,,0.8300,81.2623,,,,9.1516E+02,,-1.605E-05,,13.6230,13.6241,0.1010,290.318,84.191,83.761,,,,,,,,,,,,
CalCOFI,2101RL,028,,2101_028d,22-Jan-2021 16:43:51,22-Jan-2021 08:43:51,33.25154,-118.24980,090.0 035.0,090.0,035.0,34.000,34.245,,13.5822,,13.5765,,13.5794,33.4342,,33.4400,33.4310,,33.4330,33.4365,4.8738,,5.1008,5.0886,4.8536,,5.1530,5.1204,5.1045,212.341,222.5388,182.3076,211.462,236.5789,182.3155,182.3116,,,,, ,, , ,25.0640,,25.0628,,0.8151,81.5649,,,,8.3718E+02,,1.0000E-12,,13.5774,13.5717,0.1039,289.631,82.405,82.052,,,,,,,,,,,,
CalCOFI,2101RL,028,,2101_028d,22-Jan-2021 16:43:53,22-Jan-2021 08:43:53,33.25154,-118.24980,090.0 035.0,090.0,035.0,35.000,35.252,,13.4639,,13.4609,,13.4624,33.4352,,33.4410,33.4319,,33.4339,33.4375,4.7917,,5.0149,5.0039,4.7759,,5.0705,5.0387,5.0213,208.762,218.7923,179.6805,208.070,232.5990,179.8191,179.7498,,,,, ,, , ,25.0889,,25.0869,,0.8044,81.7827,,,,7.9743E+02,,1.0000E-12,,13.4590,13.4561,0.1068,287.289,80.823,80.548,,,,,,,,,,,,
CalCOFI,2101RL,028,,2101_028d,22-Jan-2021 16:43:55,22-Jan-2021 08:43:55,33.25154,-118.24980,090.0 035.0,090.0,035.0,36.000,36.260,,13.3907,,13.3839,,13.3873,33.4378,,33.4436,33.4348,,33.4368,33.4402,4.6253,,4.8407,4.8321,4.6375,,4.9235,4.8931,4.8626,201.507,211.1977,174.3553,202.039,224.5313,175.3806,174.8680,,,,, ,, , ,25.1057,,25.1048,,0.7941,81.9951,,,,7.6218E+02,,1.0000E-12,,13.3857,13.3789,0.1097,285.708,77.900,78.093,,,,,,,,,,,,
CalCOFI,2101RL,028,,2101_028d,22-Jan-2021 16:43:57,22-Jan-2021 08:43:57,33.25153,-118.24981,090.0 035.0,090.0,035.0,37.000,37.267,,13.2477,,13.2424,,13.2451,33.4389,,33.4447,33.4361,,33.4381,33.4414,4.5338,,4.7450,4.7377,4.5546,,4.8354,4.8059,4.7718,197.514,207.0179,171.4244,198.419,220.0911,172.7164,172.0704,,,,, ,, , ,25.1353,,25.1342,,0.7831,82.2197,,,,7.1515E+02,,1.0000E-12,,13.2426,13.2373,0.1125,282.909,76.135,76.474,,,,,,,,,,,,
CalCOFI,2101RL,028,,2101_028d,22-Jan-2021 16:43:58,22-Jan-2021 08:43:58,33.25152,-118.24982,090.0 035.0,090.0,035.0,38.000,38.274,,13.0817,,13.0750,,13.0784,33.4424,,33.4482,33.4389,,33.4409,33.4446,4.4915,,4.7007,4.6940,4.5089,,4.7869,4.7578,4.7259,195.666,205.0834,170.0679,196.424,218.0361,171.2482,170.6581,,,,, ,, , ,25.1712,,25.1698,,0.7755,82.3762,,,,7.3338E+02,,1.0000E-12,,13.0766,13.0698,0.1154,279.517,75.170,75.448,,,,,,,,,,,,
CalCOFI,2101RL,028,,2101_028d,22-Jan-2021 16:44:01,22-Jan-2021 08:44:01,33.25151,-118.24982,090.0 035.0,090.0,035.0,39.000,39.281,,12.9563,,12.9513,,12.9538,33.4459,,33.4517,33.4423,,33.4443,33.4480,4.4122,,4.6177,4.6122,4.4193,,4.6917,4.6636,4.6379,192.208,201.4635,167.5297,192.516,214.1907,168.3720,167.9509,,,,, ,, , ,25.1987,,25.1970,,0.7678,82.5350,,,,7.4992E+02,,1.0000E-12,,12.9510,12.9460,0.1182,276.913,73.654,73.763,,,,,,,,,,,,
CalCOFI,2101RL,028,,2101_028d,22-Jan-2021 16:44:03,22-Jan-2021 08:44:03,33.25149,-118.24982,090.0 035.0,090.0,035.0,40.000,40.289,,12.8020,,12.7902,,12.7961,33.4503,,33.4561,33.4478,,33.4498,33.4530,4.2861,,4.4857,4.4820,4.2879,,4.5522,4.5254,4.5037,186.707,195.7051,163.4919,186.784,208.0735,164.1535,163.8227,,,,, ,, , ,25.2325,,25.2329,,0.7638,82.6168,,,,6.3753E+02,,1.0000E-12,,12.7966,12.7849,0.1209,273.715,71.322,71.333,,,,,,,,,,,,
CalCOFI,2101RL,028,,2101_028d,22-Jan-2021 16:44:05,22-Jan-2021 08:44:05,33.25148,-118.24982,090.0 035.0,090.0,035.0,41.000,41.296,,12.6319,,12.6258,,12.6289,33.4589,,33.4647,33.4561,,33.4581,33.4614,4.2321,,4.4292,4.4263,4.2236,,4.4839,4.4577,4.4420,184.349,193.2367,161.7611,183.976,205.4514,162.0870,161.9241,,,,, ,, , ,25.2724,,25.2714,,0.7599,82.6974,,,,6.0596E+02,,1.0000E-12,,12.6264,12.6203,0.1237,269.933,70.180,70.027,,,,,,,,,,,,
CalCOFI,2101RL,028,,2101_028d,22-Jan-2021 16:44:07,22-Jan-2021 08:44:07,33.25147,-118.24982,090.0 035.0,090.0,035.0,42.000,42.303,,12.5057,,12.4988,,12.5023,33.4665,,33.4723,33.4634,,33.4654,33.4689,4.1561,,4.3497,4.3478,4.1519,,4.4077,4.3823,4.3651,181.031,189.7635,159.3256,180.847,201.7617,159.7842,159.5549,,,,, ,, , ,25.3028,,25.3017,,0.7553,82.7929,,,,5.9304E+02,,1.0000E-12,,12.5001,12.4933,0.1264,267.061,68.742,68.660,,,,,,,,,,,,
CalCOFI,2101RL,028,,2101_028d,22-Jan-2021 16:44:09,22-Jan-2021 08:44:09,33.25144,-118.24982,090.0 035.0,090.0,035.0,43.000,43.311,,12.3777,,12.3699,,12.3738,33.4774,,33.4832,33.4749,,33.4769,33.4801,4.0686,,4.2581,4.2575,4.0590,,4.3091,4.2846,4.2711,177.212,185.7657,156.5224,176.796,197.5149,156.8028,156.6626,,,,, ,, , ,25.3359,,25.3354,,0.7512,82.8783,,,,5.6932E+02,,1.0000E-12,,12.3721,12.3643,0.1291,263.930,67.119,66.949,,,,,,,,,,,,
CalCOFI,2101RL,028,,2101_028d,22-Jan-2021 16:44:11,22-Jan-2021 08:44:11,33.25144,-118.24984,090.0 035.0,090.0,035.0,44.000,44.318,,12.2205,,12.2165,,12.2185,33.4912,,33.4970,33.4883,,33.4903,33.4937,4.0553,,4.2442,4.2438,4.0275,,4.2756,4.2514,4.2476,176.627,185.1533,156.0930,175.415,196.8644,155.7864,155.9397,,,,, ,, , ,25.3767,,25.3752,,0.7480,82.9450,,,,5.6038E+02,,1.0000E-12,,12.2148,12.2108,0.1317,260.068,66.686,66.222,,,,,,,,,,,,
CalCOFI,2101RL,028,,2101_028d,22-Jan-2021 16:44:13,22-Jan-2021 08:44:13,33.25143,-118.24984,090.0 035.0,090.0,035.0,45.000,45.325,,12.1671,,12.1656,,12.1664,33.4940,,33.4998,33.4904,,33.4924,33.4961,4.0305,,4.2182,4.2182,4.0127,,4.2599,4.2359,4.2271,175.547,184.0228,155.3003,174.768,195.6634,155.3103,155.3053,,,,, ,, , ,25.3891,,25.3865,,0.7443,83.0221,,,,5.5071E+02,,1.0000E-12,,12.1612,12.1597,0.1343,258.909,66.206,65.909,,,,,,,,,,,,
CalCOFI,2101RL,028,,2101_028d,22-Jan-2021 16:44:15,22-Jan-2021 08:44:15,33.25142,-118.24984,090.0 035.0,090.0,035.0,46.000,46.333,,12.0962,,12.0924,,12.0943,33.4944,,33.5002,33.4913,,33.4933,33.4968,4.0133,,4.2002,4.2004,3.9930,,4.2390,4.2151,4.2078,174.794,183.2346,154.7476,173.911,194.8261,154.6796,154.7136,,,,, ,, , ,25.4028,,25.4011,,0.7417,83.0755,,,,5.4032E+02,,1.0000E-12,,12.0903,12.0865,0.1369,257.617,65.826,65.487,,,,,,,,,,,,
CalCOFI,2101RL,028,,2101_028d,22-Jan-2021 16:44:17,22-Jan-2021 08:44:17,33.25140,-118.24985,090.0 035.0,090.0,035.0,47.000,47.340,,12.0369,,12.0341,,12.0355,33.5026,,33.5084,33.4993,,33.5013,33.5049,4.0051,,4.1916,4.1920,3.9731,,4.2178,4.1942,4.1931,174.434,182.8577,154.4834,173.041,194.4257,154.0393,154.2614,,,,, ,, , ,25.4204,,25.4184,,0.7391,83.1285,,,,5.3439E+02,,1.0000E-12,,12.0309,12.0281,0.1395,255.967,65.613,65.084,,,,,,,,,,,,
CalCOFI,2101RL,028,,2101_028d,22-Jan-2021 16:44:19,22-Jan-2021 08:44:19,33.25138,-118.24986,090.0 035.0,090.0,035.0,48.000,48.348,,12.0170,,12.0171,,12.0171,33.5062,,33.5120,33.5026,,33.5046,33.5083,3.9926,,4.1786,4.1791,3.9587,,4.2025,4.1791,4.1791,173.890,182.2883,154.0841,172.414,193.8208,153.5778,153.8310,,,,, ,, , ,25.4269,,25.4242,,0.7363,83.1874,,,,5.3523E+02,,1.0000E-12,,12.0108,12.0109,0.1421,255.373,65.383,64.826,,,,,,,,,,,,
CalCOFI,2101RL,028,,2101_028d,22-Jan-2021 16:44:21,22-Jan-2021 08:44:21,33.25136,-118.24986,090.0 035.0,090.0,035.0,49.000,49.355,,12.0015,,12.0011,,12.0013,33.5101,,33.5159,33.5068,,33.5088,33.5124,3.9412,,4.1248,4.1260,3.9141,,4.1552,4.1321,4.1291,171.648,179.9413,152.4384,170.469,191.3277,152.1464,152.2924,,,,, ,, , ,25.4329,,25.4305,,0.7356,83.2027,,,,5.3182E+02,,1.0000E-12,,11.9952,11.9948,0.1446,254.827,64.521,64.076,,,,,,,,,,,,
CalCOFI,2101RL,028,,2101_028d,22-Jan-2021 16:44:24,22-Jan-2021 08:44:24,33.25134,-118.24986,090.0 035.0,090.0,035.0,50.000,50.362,,11.9779,,11.9727,,11.9753,33.5163,,33.5221,33.5137,,33.5157,33.5189,3.8161,,3.9938,3.9969,3.8268,,4.0624,4.0403,4.0186,166.200,174.2384,148.4395,166.667,185.2694,149.3483,148.8939,,,,, ,, , ,25.4422,,25.4412,,0.7342,83.2305,,,,5.2848E+02,,1.0000E-12,,11.9715,11.9663,0.1472,253.969,62.445,62.613,,,,,,,,,,,,
CalCOFI,2101RL,028,,2101_028d,22-Jan-2021 16:44:26,22-Jan-2021 08:44:26,33.25134,-118.24986,090.0 035.0,090.0,035.0,51.000,51.370,,11.7860,,11.7724,,11.7792,33.5346,,33.5404,33.5334,,33.5354,33.5379,3.7692,,3.9447,3.9485,3.7692,,4.0013,3.9797,3.9641,164.149,172.0914,146.9341,164.148,182.9887,147.4944,147.2143,,,,, ,, , ,25.4923,,25.4939,,0.7331,83.2533,,,,5.2437E+02,,1.0000E-12,,11.7795,11.7659,0.1497,249.208,61.436,61.418,51,,33.5476,3.934,171.52,0.569,0.212,,,,,
CalCOFI,2101RL,028,,2101_028d,22-Jan-2021 16:44:27,22-Jan-2021 08:44:27,33.25132,-118.24986,090.0 035.0,090.0,035.0,52.000,52.377,,11.6809,,11.6785,,11.6797,33.5485,,33.5543,33.5454,,33.5474,33.5509,3.7438,,3.9182,3.9223,3.7310,,3.9607,3.9395,3.9309,163.036,170.9263,146.1171,162.478,181.7510,146.2654,146.1913,,,,, ,, , ,25.5227,,25.5208,,0.7300,83.3185,,,,5.1902E+02,,1.0000E-12,,11.6743,11.6719,0.1522,246.336,60.892,60.679,,,,,,,,,,,,
CalCOFI,2101RL,028,,2101_028d,22-Jan-2021 16:44:29,22-Jan-2021 08:44:29,33.25132,-118.24986,090.0 035.0,090.0,035.0,53.000,53.384,,11.6181,,11.6152,,11.6167,33.5590,,33.5648,33.5564,,33.5584,33.5616,3.7349,,3.9088,3.9131,3.7061,,3.9342,3.9134,3.9133,162.648,170.5201,145.8323,161.394,181.3195,145.4676,145.6500,,,,, ,, , ,25.5424,,25.5410,,0.7259,83.4044,,,,5.1318E+02,,1.0000E-12,,11.6115,11.6085,0.1547,244.480,60.671,60.199,,,,,,,,,,,,